EW0731 Weather Reports


Display with metric or nautical units.
time (UTC)temp
F
wind
direction
speed
MPH
gust
MPH
rain 1hr
in
rain 24hr
in
rain mn
in
humidity
%
barometer
mb
20240620210027 91 188 0.0 9.0 0.00 0.04 0.02 71 1017.5
20240620204519 91 270 0.0 13.0 0.00 0.05 0.02 70 1017.4
20240620203026 91 207 1.0 18.0 0.00 0.05 0.02 69 1017.5
20240620201543 91 159 0.0 20.0 0.00 0.05 0.02 70 1017.6
20240620200018 91 26 0.0 14.0 0.00 0.05 0.02 69 1017.6
20240620194515 91 174 3.0 19.0 0.00 0.05 0.02 71 1017.7
20240620193030 91 171 0.0 15.0 0.00 0.05 0.02 71 1017.8
20240620191512 91 112 1.0 15.0 0.00 0.05 0.02 71 1017.9
20240620190011 90 163 1.0 14.0 0.00 0.05 0.02 73 1018.0
20240620184512 91 148 1.0 9.0 0.00 0.06 0.02 72 1018.2
20240620183008 90 195 0.0 12.0 0.00 0.06 0.02 73 1018.3
20240620181505 89 195 0.0 11.0 0.00 0.06 0.02 75 1018.2
20240620180002 88 169 0.0 8.0 0.00 0.06 0.02 77 1018.2
20240620174502 88 336 0.0 9.0 0.00 0.07 0.02 77 1018.2
20240620173103 88 335 0.0 9.0 0.00 0.07 0.02 78 1018.4
20240620171602 88 144 0.0 8.0 0.00 0.07 0.02 79 1018.4
20240620170057 87 114 0.0 7.0 0.00 0.07 0.02 82 1018.5
20240620164554 86 151 0.0 3.0 0.00 0.07 0.02 83 1018.4
20240620163051 86 5 0.0 5.0 0.00 0.07 0.02 83 1018.2
20240620161549 86 43 0.0 7.0 0.00 0.07 0.02 82 1018.0
20240620160050 86 199 0.0 5.0 0.00 0.07 0.02 83 1017.9
20240620154608 86 5 0.0 3.0 0.00 0.09 0.02 83 1017.8
20240620153043 85 0.0 0.0 0.01 0.09 0.02 86 1017.7
20240620151539 84 0.0 0.0 0.01 0.09 0.02 88 1017.5
20240620150034 83 0.0 0.0 0.01 0.09 0.02 89 1017.5
20240620144534 83 0.0 0.0 0.01 0.10 0.02 89 1017.4
20240620143033 82 0.0 0.0 0.00 0.09 0.01 90 1017.2
20240620141521 82 0.0 0.0 0.00 0.09 0.01 91 1017.0
20240620140038 81 0.0 0.0 0.00 0.09 0.01 91 1017.0
20240620134513 80 0.0 0.0 0.00 0.11 0.01 91 1016.8
20240620133009 80 0.0 0.0 0.00 0.11 0.01 91 1016.6
20240620131507 79 0.0 0.0 0.00 0.11 0.01 90 1016.3
20240620130102 79 0.0 0.0 0.00 0.11 0.01 89 1016.0
20240620124601 79 0.0 0.0 0.00 0.13 0.01 88 1015.8
20240620123051 79 0.0 0.0 0.00 0.13 0.01 88 1015.6
20240620121550 79 0.0 0.0 0.00 0.13 0.01 88 1015.4
20240620120041 79 0.0 0.0 0.00 0.13 0.01 88 1015.3
20240620114541 79 0.0 0.0 0.00 0.17 0.01 88 1015.2
20240620113037 79 0.0 0.0 0.00 0.17 0.01 88 1015.0
20240620111527 79 0.0 0.0 0.00 0.17 0.01 88 1014.9
20240620110028 79 0.0 0.0 0.00 0.17 0.01 88 1014.9
20240620104519 79 0.0 0.0 0.00 0.20 0.01 89 1014.6
20240620103014 79 0.0 0.0 0.00 0.20 0.01 89 1014.5
20240620101510 79 0.0 0.0 0.00 0.20 0.01 89 1014.4
20240620100005 79 0.0 0.0 0.00 0.20 0.01 89 1014.4
20240620094502 79 0.0 0.0 0.01 0.25 0.01 90 1014.5
20240620093057 79 0.0 0.0 0.01 0.25 0.01 90 1014.4
20240620091605 79 0.0 0.0 0.01 0.25 0.01 90 1014.3
20240620090051 79 0.0 0.0 0.01 0.25 0.01 91 1014.4
20240620084543 79 0.0 0.0 0.00 0.31 0.00 91 1014.3
20240620083040 79 0.0 0.0 0.00 0.31 0.00 91 1014.2
20240620081538 79 0.0 0.0 0.00 0.31 0.00 91 1014.2
20240620080030 79 0.0 0.0 0.00 0.31 0.00 91 1014.2
20240620074538 80 0.0 0.0 0.00 0.36 0.00 91 1014.3
20240620073052 80 0.0 0.0 0.00 0.36 0.00 91 1014.3
20240620071516 80 0.0 0.0 0.00 0.36 0.00 91 1014.3
20240620070014 80 0.0 0.0 0.00 0.36 0.00 91 1014.3
20240620064508 80 0.0 0.0 0.00 0.36 0.00 91 1014.4
20240620063004 80 0.0 0.0 0.00 0.36 0.00 91 1014.6
20240620061603 80 0.0 0.0 0.00 0.36 0.00 91 1014.7
20240620060058 80 0.0 0.0 0.00 0.36 0.00 91 1014.7
20240620054554 80 0.0 0.0 0.00 0.36 0.00 91 1014.8
20240620053053 80 0.0 0.0 0.00 0.36 0.00 91 1014.9
20240620051557 80 0.0 0.0 0.00 0.36 0.00 91 1015.0
20240620050037 80 0.0 0.0 0.00 0.36 0.00 91 1014.9
20240620044535 80 0.0 0.0 0.00 0.36 0.36 91 1015.0
20240620043036 79 0.0 0.0 0.00 0.36 0.36 89 1015.0
20240620041531 79 0.0 0.0 0.00 0.36 0.36 88 1014.9
20240620040019 78 0.0 0.0 0.00 0.36 0.36 88 1014.7
20240620034515 79 0.0 0.0 0.00 0.36 0.36 87 1014.6
20240620033011 79 0.0 0.0 0.01 0.36 0.36 86 1014.5
20240620031513 78 0.0 0.0 0.01 0.36 0.36 85 1014.4
20240620030001 78 0.0 0.0 0.01 0.36 0.36 85 1014.2
20240620024559 78 0.0 0.0 0.01 0.36 0.36 84 1014.0
20240620023051 78 0.0 0.0 0.00 0.35 0.35 84 1013.8
20240620021547 78 0.0 0.0 0.00 0.35 0.35 84 1013.7
20240620020043 78 0.0 0.0 0.00 0.35 0.35 84 1013.4
20240620014541 79 0.0 0.0 0.00 0.35 0.35 84 1013.3
20240620013035 79 0.0 0.0 0.00 0.35 0.35 84 1013.2
20240620011529 79 0.0 0.0 0.00 0.35 0.35 84 1013.1
20240620010026 79 0.0 0.0 0.00 0.35 0.35 84 1013.0
20240620004522 79 0.0 0.0 0.00 0.35 0.35 84 1012.7
20240620003017 79 0.0 0.0 0.00 0.35 0.35 84 1012.4
20240620001519 79 0.0 0.0 0.00 0.35 0.35 84 1012.3
20240620000009 78 0.0 0.0 0.01 0.35 0.35 84 1012.3
20240619234504 78 0.0 0.0 0.01 0.35 0.35 84 1012.1
20240619233118 77 0.0 0.0 0.01 0.35 0.35 85 1012.3
20240619231655 77 0.0 0.0 0.01 0.35 0.35 86 1012.4
20240619230053 77 0.0 0.0 0.00 0.34 0.34 87 1012.7
20240619224547 79 0.0 0.0 0.00 0.34 0.34 84 1012.6
20240619223046 79 0.0 0.0 0.00 0.34 0.34 84 1012.4
20240619221538 78 0.0 0.0 0.00 0.34 0.34 84 1012.4
20240619220035 78 0.0 0.0 0.00 0.34 0.34 86 1012.3
20240619214533 78 0.0 0.0 0.00 0.34 0.34 87 1012.3
20240619213025 77 0.0 0.0 0.00 0.34 0.34 88 1012.4
20240619211520 77 0.0 0.0 0.01 0.34 0.34 89 1011.7